M I D A S
Marine Information and Data Acquisition System
Tripno 1667 of the Zeeleeuw from 2009-03-30 06:45:18 to 2009-03-30 15:00:56
Back to CruiseResearch ActivitiesStationsMapUnderway DataData graphs

EquipmentUnitsComment
TimeDGPSUTC
LatitudeDGPSDM.mWGS84
LongitudeDGPSDM.mWGS84
HeadingGyrodeg 
SOGDGPSknotsSpeed over ground
COGDGPSdegCourse over ground
DepthEcho soundermeters200 kHz
Missing or incorrect values are displayed as -999
Navigation data collected by the RV Zeeleeuw from 2009-03-30 05:57:48 to 2009-03-30 15:07:51
                                                                                    Next 1000 lines
Time Latitude Longitude Heading SOG COG Depth
2009-03-30 05:57:58 51°13.664 2°55.956 127.8 -999 2 -999
2009-03-30 05:58:03 51°13.664 2°55.956 127.7 -999 51 -999
2009-03-30 05:58:08 51°13.664 2°55.956 127.5 -999 43 -999
2009-03-30 05:58:13 51°13.664 2°55.956 127.4 -999 334 -999
2009-03-30 05:58:18 51°13.665 2°55.955 127.2 -999 18 -999
2009-03-30 05:58:23 51°13.664 2°55.956 127.1 -999 90 -999
2009-03-30 05:58:28 51°13.664 2°55.956 127 -999 341 -999
2009-03-30 05:58:33 51°13.664 2°55.956 126.9 -999 301 -999
2009-03-30 05:58:38 51°13.665 2°55.956 126.7 -999 357 -999
2009-03-30 05:58:43 51°13.665 2°55.956 126.6 -999 242 -999
2009-03-30 05:58:48 51°13.665 2°55.956 126.6 -999 319 -999
2009-03-30 05:58:53 51°13.664 2°55.956 126.6 -999 151 -999
2009-03-30 05:58:58 51°13.664 2°55.956 126.6 -999 151 -999
2009-03-30 05:59:03 51°13.664 2°55.956 126.6 -999 149 -999
2009-03-30 05:59:08 51°13.664 2°55.956 126.7 -999 306 -999
2009-03-30 05:59:13 51°13.664 2°55.956 126.8 -999 279 -999
2009-03-30 05:59:18 51°13.664 2°55.956 126.8 -999 122 -999
2009-03-30 05:59:23 51°13.664 2°55.957 126.9 -999 142 -999
2009-03-30 05:59:28 51°13.664 2°55.957 127 -999 233 -999
2009-03-30 05:59:33 51°13.664 2°55.957 127.1 -999 143 -999
2009-03-30 05:59:39 51°13.664 2°55.957 127.1 -999 116 -999
2009-03-30 05:59:43 51°13.664 2°55.957 127.2 -999 133 -999
2009-03-30 05:59:48 51°13.664 2°55.957 127.3 -999 186 -999
2009-03-30 05:59:53 51°13.664 2°55.957 127.4 -999 138 -999
2009-03-30 05:59:58 51°13.664 2°55.957 127.4 -999 308 -999
2009-03-30 06:00:03 51°13.664 2°55.957 127.4 -999 46 -999
2009-03-30 06:00:09 51°13.664 2°55.957 127.4 -999 278 -999
2009-03-30 06:00:13 51°13.664 2°55.957 127.4 -999 96 -999
2009-03-30 06:00:17 51°13.664 2°55.957 127.3 -999 44 -999
2009-03-30 06:00:24 51°13.663 2°55.957 127.3 -999 335 -999
2009-03-30 06:00:29 51°13.663 2°55.957 127.2 -999 344 -999
2009-03-30 06:00:34 51°13.663 2°55.957 127.2 -999 65 -999
2009-03-30 06:00:39 51°13.663 2°55.957 127.2 -999 77 -999
2009-03-30 06:00:44 51°13.663 2°55.957 127.2 -999 41 -999
2009-03-30 06:00:49 51°13.663 2°55.957 127.2 -999 127 -999
2009-03-30 06:00:54 51°13.663 2°55.957 127.2 -999 69 -999
2009-03-30 06:00:58 51°13.663 2°55.957 127.2 -999 308 -999
2009-03-30 06:01:03 51°13.663 2°55.957 127.2 -999 331 -999
2009-03-30 06:01:08 51°13.663 2°55.957 127.2 -999 137 -999
2009-03-30 06:01:13 51°13.663 2°55.957 127.4 -999 134 -999
2009-03-30 06:01:18 51°13.664 2°55.957 127.6 0.1 303 -999
2009-03-30 06:01:24 51°13.664 2°55.957 127.7 -999 302 -999
2009-03-30 06:01:28 51°13.664 2°55.957 127.8 -999 193 -999
2009-03-30 06:01:33 51°13.664 2°55.957 127.9 -999 149 -999
2009-03-30 06:01:38 51°13.664 2°55.957 128 -999 188 -999
2009-03-30 06:01:44 51°13.664 2°55.957 128 -999 279 -999
2009-03-30 06:01:48 51°13.664 2°55.957 128 -999 287 -999
2009-03-30 06:01:53 51°13.664 2°55.957 127.9 -999 114 -999
2009-03-30 06:01:58 51°13.664 2°55.958 127.8 -999 99 -999
2009-03-30 06:02:03 51°13.664 2°55.957 127.8 -999 309 -999
2009-03-30 06:02:08 51°13.664 2°55.957 127.7 -999 295 -999
2009-03-30 06:02:13 51°13.664 2°55.958 127.5 -999 342 -999
2009-03-30 06:02:18 51°13.664 2°55.958 127.4 -999 33 -999
2009-03-30 06:02:24 51°13.664 2°55.958 127.3 -999 334 -999
2009-03-30 06:02:29 51°13.664 2°55.957 127.2 -999 325 -999
2009-03-30 06:02:33 51°13.664 2°55.957 127.2 -999 308 -999
2009-03-30 06:02:38 51°13.663 2°55.957 127.1 -999 326 -999
2009-03-30 06:02:43 51°13.663 2°55.957 127.1 -999 321 -999
2009-03-30 06:02:48 51°13.663 2°55.957 127 -999 338 -999
2009-03-30 06:02:53 51°13.663 2°55.957 126.9 -999 311 -999
2009-03-30 06:02:58 51°13.663 2°55.958 126.8 -999 346 -999
2009-03-30 06:03:03 51°13.664 2°55.958 126.7 -999 316 -999
2009-03-30 06:03:09 51°13.664 2°55.958 126.6 -999 346 -999
2009-03-30 06:03:14 51°13.664 2°55.958 126.6 -999 93 -999
2009-03-30 06:03:19 51°13.664 2°55.958 126.6 -999 169 -999
2009-03-30 06:03:23 51°13.664 2°55.958 126.5 -999 148 -999
2009-03-30 06:03:29 51°13.664 2°55.958 126.5 -999 333 -999
2009-03-30 06:03:33 51°13.664 2°55.958 126.5 -999 338 -999
2009-03-30 06:03:37 51°13.663 2°55.958 126.5 -999 327 -999
2009-03-30 06:03:43 51°13.663 2°55.958 126.5 -999 13 -999
2009-03-30 06:03:48 51°13.663 2°55.958 126.5 -999 285 -999
2009-03-30 06:03:54 51°13.663 2°55.958 126.5 -999 182 -999
2009-03-30 06:03:58 51°13.663 2°55.958 126.5 -999 224 -999
2009-03-30 06:04:04 51°13.663 2°55.958 126.5 -999 279 -999
2009-03-30 06:04:08 51°13.663 2°55.958 126.4 -999 146 -999
2009-03-30 06:04:13 51°13.663 2°55.958 126.4 0.1 147 -999
2009-03-30 06:04:18 51°13.663 2°55.958 126.3 0.1 143 -999
2009-03-30 06:04:24 51°13.663 2°55.957 126.3 -999 126 -999
2009-03-30 06:04:28 51°13.662 2°55.957 126.3 -999 138 -999
2009-03-30 06:04:33 51°13.663 2°55.957 126.4 -999 125 -999
2009-03-30 06:04:38 51°13.664 2°55.958 126.4 -999 113 -999
2009-03-30 06:04:44 51°13.665 2°55.958 126.7 -999 25 -999
2009-03-30 06:04:48 51°13.665 2°55.958 127 -999 137 -999
2009-03-30 06:04:53 51°13.665 2°55.958 127.3 -999 142 -999
2009-03-30 06:04:58 51°13.664 2°55.957 127.7 -999 180 -999
2009-03-30 06:05:04 51°13.664 2°55.958 128 0.1 150 -999
2009-03-30 06:05:09 51°13.664 2°55.958 128.2 0.1 147 -999
2009-03-30 06:05:13 51°13.664 2°55.958 128.3 -999 158 -999
2009-03-30 06:05:18 51°13.664 2°55.958 128.4 -999 153 -999
2009-03-30 06:05:23 51°13.662 2°55.957 128.4 -999 338 -999
2009-03-30 06:05:29 51°13.662 2°55.957 128.4 -999 336 -999
2009-03-30 06:05:34 51°13.662 2°55.957 128.3 -999 25 -999
2009-03-30 06:05:39 51°13.662 2°55.957 128.2 -999 337 -999
2009-03-30 06:05:43 51°13.662 2°55.957 128.1 -999 39 -999
2009-03-30 06:05:49 51°13.662 2°55.957 128 -999 108 -999
2009-03-30 06:05:54 51°13.662 2°55.957 127.9 -999 345 -999
2009-03-30 06:05:58 51°13.661 2°55.957 127.8 -999 24 -999
2009-03-30 06:06:03 51°13.662 2°55.957 127.8 0.1 325 -999
2009-03-30 06:06:09 51°13.662 2°55.957 127.7 -999 302 -999
2009-03-30 06:06:14 51°13.662 2°55.957 127.6 -999 73 -999
2009-03-30 06:06:18 51°13.662 2°55.957 127.5 -999 189 -999
2009-03-30 06:06:24 51°13.662 2°55.957 127.3 -999 296 -999
2009-03-30 06:06:29 51°13.662 2°55.957 127.2 -999 279 -999
2009-03-30 06:06:34 51°13.662 2°55.957 127.1 -999 124 -999
2009-03-30 06:06:38 51°13.663 2°55.957 127.1 -999 140 -999
2009-03-30 06:06:44 51°13.663 2°55.957 127 -999 309 -999
2009-03-30 06:06:48 51°13.663 2°55.957 127 -999 96 -999
2009-03-30 06:06:54 51°13.664 2°55.957 126.9 -999 7 -999
2009-03-30 06:06:58 51°13.664 2°55.957 126.8 -999 348 -999
2009-03-30 06:07:04 51°13.664 2°55.957 126.8 -999 48 -999
2009-03-30 06:07:08 51°13.664 2°55.957 126.7 -999 318 -999
2009-03-30 06:07:13 51°13.664 2°55.957 126.7 -999 338 -999
2009-03-30 06:07:18 51°13.664 2°55.957 126.7 -999 358 -999
2009-03-30 06:07:24 51°13.664 2°55.957 126.7 -999 271 -999
2009-03-30 06:07:28 51°13.664 2°55.957 126.7 -999 315 -999
2009-03-30 06:07:33 51°13.664 2°55.957 126.7 -999 355 -999
2009-03-30 06:07:38 51°13.665 2°55.957 126.6 -999 305 -999
2009-03-30 06:07:44 51°13.665 2°55.957 126.6 -999 60 -999
2009-03-30 06:07:49 51°13.665 2°55.957 126.5 -999 98 -999
2009-03-30 06:07:53 51°13.665 2°55.957 126.5 -999 124 -999
2009-03-30 06:07:58 51°13.665 2°55.957 126.5 -999 64 -999
2009-03-30 06:08:03 51°13.665 2°55.957 126.5 -999 253 -999
2009-03-30 06:08:09 51°13.665 2°55.958 126.5 -999 50 -999
2009-03-30 06:08:14 51°13.665 2°55.958 126.5 -999 207 -999
2009-03-30 06:08:19 51°13.665 2°55.958 126.4 -999 340 -999
2009-03-30 06:08:23 51°13.665 2°55.958 126.4 0.1 175 -999
2009-03-30 06:08:29 51°13.665 2°55.958 126.4 0.1 179 -999
2009-03-30 06:08:34 51°13.665 2°55.958 126.4 -999 236 -999
2009-03-30 06:08:39 51°13.665 2°55.958 126.6 -999 240 -999
2009-03-30 06:08:43 51°13.665 2°55.958 126.8 -999 256 -999
2009-03-30 06:08:49 51°13.665 2°55.958 126.9 -999 204 -999
2009-03-30 06:08:54 51°13.664 2°55.958 127.1 0.1 173 -999
2009-03-30 06:08:58 51°13.665 2°55.958 127.2 -999 115 -999
2009-03-30 06:09:04 51°13.665 2°55.958 127.2 -999 30 -999
2009-03-30 06:09:09 51°13.665 2°55.958 127.2 -999 114 -999
2009-03-30 06:09:14 51°13.665 2°55.958 127.2 -999 49 -999
2009-03-30 06:09:18 51°13.665 2°55.958 127.3 -999 320 -999
2009-03-30 06:09:24 51°13.665 2°55.958 127.3 -999 51 -999
2009-03-30 06:09:28 51°13.665 2°55.958 127.3 -999 116 -999
2009-03-30 06:09:33 51°13.665 2°55.958 127.4 -999 336 -999
2009-03-30 06:09:38 51°13.664 2°55.959 127.6 -999 124 -999
2009-03-30 06:09:44 51°13.664 2°55.958 127.8 0.1 157 -999
2009-03-30 06:09:48 51°13.664 2°55.958 127.8 -999 251 -999
2009-03-30 06:09:53 51°13.664 2°55.958 127.9 -999 311 -999
2009-03-30 06:09:58 51°13.664 2°55.959 128 -999 115 -999
2009-03-30 06:10:04 51°13.664 2°55.958 128.1 -999 16 -999
2009-03-30 06:10:08 51°13.664 2°55.958 128.2 -999 88 -999
2009-03-30 06:10:13 51°13.664 2°55.958 128.2 -999 143 -999
2009-03-30 06:10:18 51°13.664 2°55.958 128.2 -999 9 -999
2009-03-30 06:10:24 51°13.664 2°55.958 128.2 -999 153 -999
2009-03-30 06:10:29 51°13.664 2°55.958 128.2 -999 30 -999
2009-03-30 06:10:33 51°13.664 2°55.958 128.2 -999 321 -999
2009-03-30 06:10:39 51°13.664 2°55.958 128.2 -999 319 -999
2009-03-30 06:10:44 51°13.664 2°55.958 128.2 -999 226 -999
2009-03-30 06:10:49 51°13.664 2°55.958 128.2 -999 94 -999
2009-03-30 06:10:54 51°13.664 2°55.958 128.2 -999 26 -999
2009-03-30 06:10:59 51°13.664 2°55.958 128.2 -999 99 -999
2009-03-30 06:11:03 51°13.664 2°55.958 128.2 -999 76 -999
2009-03-30 06:11:09 51°13.664 2°55.958 128.4 -999 214 -999
2009-03-30 06:11:14 51°13.664 2°55.958 128.5 -999 160 -999
2009-03-30 06:11:18 51°13.664 2°55.958 128.6 -999 196 -999
2009-03-30 06:11:23 51°13.664 2°55.958 128.6 -999 237 -999
2009-03-30 06:11:29 51°13.664 2°55.958 128.7 -999 269 -999
2009-03-30 06:11:34 51°13.664 2°55.958 128.7 -999 352 -999
2009-03-30 06:11:38 51°13.664 2°55.958 128.6 -999 336 -999
2009-03-30 06:11:43 51°13.664 2°55.958 128.6 -999 341 -999
2009-03-30 06:11:48 51°13.664 2°55.958 128.5 -999 301 -999
2009-03-30 06:11:53 51°13.664 2°55.958 128.4 -999 120 -999
2009-03-30 06:11:58 51°13.664 2°55.958 128.3 -999 147 -999
2009-03-30 06:12:03 51°13.664 2°55.958 128.2 -999 131 -999
2009-03-30 06:12:08 51°13.664 2°55.958 128 -999 122 -999
2009-03-30 06:12:13 51°13.664 2°55.958 128 0.1 140 -999
2009-03-30 06:12:18 51°13.664 2°55.958 128 0.1 354 -999
2009-03-30 06:12:23 51°13.664 2°55.958 128.1 -999 220 -999
2009-03-30 06:12:28 51°13.664 2°55.958 128.4 -999 314 -999
2009-03-30 06:12:33 51°13.664 2°55.958 128.5 -999 244 -999
2009-03-30 06:12:38 51°13.664 2°55.958 128.6 -999 107 -999
2009-03-30 06:12:43 51°13.664 2°55.958 128.6 -999 172 -999
2009-03-30 06:12:48 51°13.664 2°55.958 128.5 -999 352 -999
2009-03-30 06:12:53 51°13.664 2°55.958 128.3 -999 130 -999
2009-03-30 06:12:58 51°13.664 2°55.958 128 -999 166 -999
2009-03-30 06:13:03 51°13.664 2°55.958 127.8 0.1 339 -999
2009-03-30 06:13:08 51°13.664 2°55.958 127.6 0.1 333 -999
2009-03-30 06:13:13 51°13.664 2°55.958 127.4 -999 317 -999
2009-03-30 06:13:18 51°13.664 2°55.958 127.2 -999 333 -999
2009-03-30 06:13:23 51°13.664 2°55.958 127.2 -999 15 -999
2009-03-30 06:13:28 51°13.664 2°55.958 127.1 -999 317 -999
2009-03-30 06:13:33 51°13.664 2°55.958 127 -999 351 -999
2009-03-30 06:13:38 51°13.664 2°55.958 126.9 -999 272 -999
2009-03-30 06:13:43 51°13.664 2°55.958 126.9 -999 289 -999
2009-03-30 06:13:48 51°13.664 2°55.958 126.9 -999 247 -999
2009-03-30 06:13:53 51°13.664 2°55.958 126.7 -999 155 -999
2009-03-30 06:13:58 51°13.664 2°55.958 126.7 -999 331 -999
2009-03-30 06:14:03 51°13.664 2°55.957 126.7 -999 49 -999
2009-03-30 06:14:08 51°13.664 2°55.957 126.7 -999 328 -999
2009-03-30 06:14:13 51°13.664 2°55.957 126.6 -999 151 -999
2009-03-30 06:14:18 51°13.664 2°55.958 126.6 -999 170 -999
2009-03-30 06:14:23 51°13.664 2°55.958 126.6 -999 108 -999
2009-03-30 06:14:28 51°13.664 2°55.958 126.6 -999 146 -999
2009-03-30 06:14:33 51°13.664 2°55.958 126.7 -999 106 -999
2009-03-30 06:14:38 51°13.664 2°55.958 127 0.1 151 -999
2009-03-30 06:14:43 51°13.664 2°55.958 127.1 0.1 157 -999
2009-03-30 06:14:48 51°13.664 2°55.958 127.4 -999 164 -999
2009-03-30 06:14:53 51°13.664 2°55.958 127.7 -999 327 -999
2009-03-30 06:14:58 51°13.664 2°55.958 127.7 -999 354 -999
2009-03-30 06:15:03 51°13.664 2°55.958 127.8 -999 104 -999
2009-03-30 06:15:08 51°13.664 2°55.958 127.7 -999 1 -999
2009-03-30 06:15:13 51°13.664 2°55.958 127.7 -999 331 -999
2009-03-30 06:15:18 51°13.664 2°55.957 127.7 0.1 321 -999
2009-03-30 06:15:23 51°13.664 2°55.958 127.7 -999 325 -999
2009-03-30 06:15:28 51°13.664 2°55.958 127.6 -999 157 -999
2009-03-30 06:15:33 51°13.664 2°55.958 127.5 -999 321 -999
2009-03-30 06:15:38 51°13.664 2°55.958 127.4 -999 329 -999
2009-03-30 06:15:43 51°13.664 2°55.957 127.4 -999 254 -999
2009-03-30 06:15:48 51°13.664 2°55.958 127.4 0.1 141 -999
2009-03-30 06:15:53 51°13.664 2°55.957 127.6 -999 188 -999
2009-03-30 06:15:58 51°13.664 2°55.958 127.7 -999 5 -999
2009-03-30 06:16:03 51°13.664 2°55.958 127.8 -999 137 -999
2009-03-30 06:16:08 51°13.664 2°55.958 128 -999 160 -999
2009-03-30 06:16:13 51°13.664 2°55.958 128.1 -999 132 -999
2009-03-30 06:16:18 51°13.664 2°55.958 128.4 -999 152 -999
2009-03-30 06:16:23 51°13.664 2°55.958 128.5 -999 135 -999
2009-03-30 06:16:28 51°13.664 2°55.958 128.6 -999 278 -999
2009-03-30 06:16:33 51°13.664 2°55.958 128.7 -999 256 -999
2009-03-30 06:16:38 51°13.664 2°55.958 128.7 -999 321 -999
2009-03-30 06:16:43 51°13.664 2°55.958 128.7 -999 280 -999
2009-03-30 06:16:48 51°13.664 2°55.958 128.6 -999 334 -999
2009-03-30 06:16:53 51°13.664 2°55.958 128.5 -999 3 -999
2009-03-30 06:16:58 51°13.664 2°55.958 128.3 -999 99 -999
2009-03-30 06:17:03 51°13.664 2°55.957 128.3 -999 162 -999
2009-03-30 06:17:08 51°13.663 2°55.957 128.2 -999 56 -999
2009-03-30 06:17:13 51°13.663 2°55.957 128.2 -999 314 -999
2009-03-30 06:17:18 51°13.664 2°55.957 128.2 -999 305 -999
2009-03-30 06:17:23 51°13.664 2°55.957 128.2 0.1 321 -999
2009-03-30 06:17:28 51°13.664 2°55.957 128.2 -999 161 -999
2009-03-30 06:17:33 51°13.664 2°55.957 128.1 -999 131 -999
2009-03-30 06:17:38 51°13.664 2°55.957 128 0.1 336 -999
2009-03-30 06:17:43 51°13.664 2°55.957 127.9 -999 73 -999
2009-03-30 06:17:48 51°13.664 2°55.957 127.8 -999 137 -999
2009-03-30 06:17:53 51°13.664 2°55.957 127.7 -999 4 -999
2009-03-30 06:17:58 51°13.664 2°55.957 127.7 -999 325 -999
2009-03-30 06:18:03 51°13.664 2°55.957 127.6 0.1 322 -999
2009-03-30 06:18:08 51°13.664 2°55.957 127.6 -999 301 -999
2009-03-30 06:18:13 51°13.664 2°55.957 127.6 0.1 321 -999
2009-03-30 06:18:18 51°13.664 2°55.957 127.5 -999 324 -999
2009-03-30 06:18:23 51°13.664 2°55.957 127.4 -999 327 -999
2009-03-30 06:18:28 51°13.664 2°55.957 127.3 -999 153 -999
2009-03-30 06:18:33 51°13.664 2°55.957 127.1 -999 73 -999
2009-03-30 06:18:38 51°13.664 2°55.957 127.1 -999 333 -999
2009-03-30 06:18:43 51°13.664 2°55.957 127.1 -999 318 -999
2009-03-30 06:18:48 51°13.664 2°55.957 127.1 -999 287 -999
2009-03-30 06:18:53 51°13.664 2°55.957 127.1 -999 273 -999
2009-03-30 06:18:58 51°13.664 2°55.957 127.1 -999 286 -999
2009-03-30 06:19:03 51°13.664 2°55.957 127.1 -999 347 -999
2009-03-30 06:19:08 51°13.664 2°55.957 127 -999 319 -999
2009-03-30 06:19:13 51°13.664 2°55.957 126.8 0.1 345 -999
2009-03-30 06:19:18 51°13.664 2°55.957 126.8 -999 213 -999
2009-03-30 06:19:23 51°13.663 2°55.958 126.8 -999 52 -999
2009-03-30 06:19:28 51°13.663 2°55.958 126.8 -999 120 -999
2009-03-30 06:19:33 51°13.663 2°55.958 126.9 -999 45 -999
2009-03-30 06:19:38 51°13.663 2°55.958 127 0.1 152 -999
2009-03-30 06:19:43 51°13.663 2°55.958 127.1 0.1 151 -999
2009-03-30 06:19:48 51°13.663 2°55.958 127.4 -999 357 -999
2009-03-30 06:19:53 51°13.663 2°55.958 127.7 -999 82 -999
2009-03-30 06:19:58 51°13.663 2°55.958 127.8 -999 132 -999
2009-03-30 06:20:03 51°13.663 2°55.958 128.1 -999 137 -999
2009-03-30 06:20:08 51°13.663 2°55.958 128.2 0.1 151 -999
2009-03-30 06:20:13 51°13.663 2°55.958 128.4 0.1 144 -999
2009-03-30 06:20:18 51°13.663 2°55.958 128.5 0.1 333 -999
2009-03-30 06:20:23 51°13.663 2°55.958 128.6 -999 341 -999
2009-03-30 06:20:28 51°13.664 2°55.958 128.6 -999 20 -999
2009-03-30 06:20:33 51°13.664 2°55.959 128.6 -999 149 -999
2009-03-30 06:20:38 51°13.664 2°55.959 128.6 -999 133 -999
2009-03-30 06:20:43 51°13.664 2°55.959 128.6 -999 230 -999
2009-03-30 06:20:48 51°13.664 2°55.959 128.6 -999 218 -999
2009-03-30 06:20:53 51°13.664 2°55.959 128.6 -999 282 -999
2009-03-30 06:20:58 51°13.664 2°55.959 128.5 -999 331 -999
2009-03-30 06:21:03 51°13.664 2°55.959 128.4 -999 310 -999
2009-03-30 06:21:08 51°13.663 2°55.959 128.3 -999 355 -999
2009-03-30 06:21:13 51°13.663 2°55.959 128.3 -999 273 -999
2009-03-30 06:21:18 51°13.663 2°55.959 128.3 -999 346 -999
2009-03-30 06:21:23 51°13.663 2°55.959 128.3 -999 272 -999
2009-03-30 06:21:28 51°13.663 2°55.959 128.2 -999 359 -999
2009-03-30 06:21:33 51°13.663 2°55.959 128.2 -999 167 -999
2009-03-30 06:21:38 51°13.663 2°55.959 128.1 -999 130 -999
2009-03-30 06:21:43 51°13.663 2°55.959 128 -999 251 -999
2009-03-30 06:21:48 51°13.663 2°55.959 127.8 -999 329 -999
2009-03-30 06:21:53 51°13.664 2°55.959 127.7 -999 343 -999
2009-03-30 06:21:58 51°13.663 2°55.959 127.6 -999 345 -999
2009-03-30 06:22:03 51°13.663 2°55.959 127.4 -999 352 -999
2009-03-30 06:22:08 51°13.663 2°55.959 127.3 -999 135 -999
2009-03-30 06:22:13 51°13.663 2°55.959 127.3 -999 185 -999
2009-03-30 06:22:18 51°13.663 2°55.959 127.2 0.1 314 -999
2009-03-30 06:22:23 51°13.663 2°55.959 127.1 0.1 318 -999
2009-03-30 06:22:28 51°13.663 2°55.959 127 -999 159 -999
2009-03-30 06:22:33 51°13.663 2°55.959 126.9 -999 170 -999
2009-03-30 06:22:38 51°13.664 2°55.959 126.8 -999 320 -999
2009-03-30 06:22:43 51°13.664 2°55.959 126.7 -999 310 -999
2009-03-30 06:22:48 51°13.664 2°55.959 126.6 -999 342 -999
2009-03-30 06:22:53 51°13.664 2°55.959 126.6 -999 148 -999
2009-03-30 06:22:58 51°13.664 2°55.959 126.6 -999 234 -999
2009-03-30 06:23:03 51°13.664 2°55.959 126.6 -999 285 -999
2009-03-30 06:23:08 51°13.664 2°55.959 126.6 -999 295 -999
2009-03-30 06:23:13 51°13.664 2°55.959 126.6 -999 176 -999
2009-03-30 06:23:19 51°13.664 2°55.959 126.6 -999 61 -999
2009-03-30 06:23:24 51°13.664 2°55.959 126.6 -999 183 -999
2009-03-30 06:23:29 51°13.664 2°55.959 126.6 0.1 137 -999
2009-03-30 06:23:34 51°13.664 2°55.959 126.6 0.1 151 -999
2009-03-30 06:23:39 51°13.664 2°55.959 126.7 -999 148 -999
2009-03-30 06:23:44 51°13.664 2°55.959 126.7 -999 150 -999
2009-03-30 06:23:49 51°13.664 2°55.959 126.8 -999 298 -999
2009-03-30 06:23:54 51°13.664 2°55.959 126.9 -999 135 -999
2009-03-30 06:23:58 51°13.664 2°55.959 126.9 -999 149 5.6
2009-03-30 06:24:03 51°13.664 2°55.959 126.9 -999 95 5.6
2009-03-30 06:24:08 51°13.664 2°55.959 126.9 -999 52 5.6
2009-03-30 06:24:13 51°13.664 2°55.959 126.9 -999 41 5.7
2009-03-30 06:24:18 51°13.664 2°55.959 126.9 -999 46 -999
2009-03-30 06:24:23 51°13.664 2°55.959 126.9 -999 254 5.6
2009-03-30 06:24:28 51°13.664 2°55.959 126.9 -999 185 5.6
2009-03-30 06:24:33 51°13.664 2°55.959 126.9 -999 275 -999
2009-03-30 06:24:38 51°13.664 2°55.959 126.9 -999 192 -999
2009-03-30 06:24:44 51°13.664 2°55.959 126.9 -999 30 5.7
2009-03-30 06:24:49 51°13.664 2°55.959 126.9 -999 55 5.7
2009-03-30 06:24:54 51°13.664 2°55.959 127 -999 219 5.7
2009-03-30 06:24:58 51°13.664 2°55.959 127 -999 98 5.7
2009-03-30 06:25:03 51°13.664 2°55.959 127 -999 189 5.7
2009-03-30 06:25:07 51°13.664 2°55.959 127 -999 32 -999
2009-03-30 06:25:13 51°13.664 2°55.959 127.1 -999 170 5.8
2009-03-30 06:25:18 51°13.664 2°55.959 127.1 -999 54 5.8
2009-03-30 06:25:23 51°13.664 2°55.959 127.1 -999 169 -999
2009-03-30 06:25:28 51°13.664 2°55.959 127.2 -999 211 5.8
2009-03-30 06:25:33 51°13.664 2°55.959 127.2 -999 22 5.7
2009-03-30 06:25:38 51°13.664 2°55.959 127.3 -999 14 5.7
2009-03-30 06:25:43 51°13.663 2°55.959 127.4 -999 187 5.7
2009-03-30 06:25:47 51°13.663 2°55.959 127.4 -999 294 5.7
2009-03-30 06:25:52 51°13.663 2°55.959 127.5 -999 46 5.7
2009-03-30 06:25:57 51°13.663 2°55.959 127.5 -999 82 5.7
2009-03-30 06:26:02 51°13.663 2°55.959 127.5 -999 81 5.7
2009-03-30 06:26:07 51°13.663 2°55.959 127.5 -999 71 5.7
2009-03-30 06:26:11 51°13.663 2°55.959 127.5 -999 192 5.7
2009-03-30 06:26:16 51°13.663 2°55.959 127.4 -999 297 5.7
2009-03-30 06:26:21 51°13.663 2°55.959 127.4 -999 357 5.7
2009-03-30 06:26:26 51°13.663 2°55.959 127.3 -999 79 5.7
2009-03-30 06:26:31 51°13.663 2°55.959 127.3 0.1 75 -999
2009-03-30 06:26:36 51°13.664 2°55.959 127.3 -999 47 -999
2009-03-30 06:26:41 51°13.664 2°55.959 127.3 -999 345 5.7
2009-03-30 06:26:46 51°13.664 2°55.959 127.3 -999 12 5.6
2009-03-30 06:26:51 51°13.664 2°55.959 127.3 -999 83 5.6
2009-03-30 06:26:56 51°13.664 2°55.959 127.3 -999 112 5.7
2009-03-30 06:27:01 51°13.664 2°55.959 127.3 -999 105 5.7
2009-03-30 06:27:05 51°13.664 2°55.959 127.3 -999 235 5.7
2009-03-30 06:27:10 51°13.664 2°55.958 127.3 0.1 233 5.7
2009-03-30 06:27:15 51°13.663 2°55.958 127.3 -999 102 5.7
2009-03-30 06:27:20 51°13.663 2°55.958 127.3 -999 168 5.7
2009-03-30 06:27:25 51°13.663 2°55.958 127.4 -999 214 5.7
2009-03-30 06:27:30 51°13.663 2°55.958 127.4 0.1 198 5.8
2009-03-30 06:27:35 51°13.663 2°55.958 127.4 -999 141 5.7
2009-03-30 06:27:42 51°13.663 2°55.958 127.5 0.1 219 5.7
2009-03-30 06:27:46 51°13.663 2°55.958 127.5 -999 299 5.7
2009-03-30 06:27:51 51°13.663 2°55.958 127.5 -999 357 5.7
2009-03-30 06:27:56 51°13.663 2°55.958 127.5 -999 227 5.8
2009-03-30 06:28:01 51°13.663 2°55.958 127.5 -999 258 5.6
2009-03-30 06:28:06 51°13.663 2°55.958 127.5 -999 278 5.7
2009-03-30 06:28:10 51°13.663 2°55.958 127.4 0.1 258 5.7
2009-03-30 06:28:15 51°13.663 2°55.958 127.3 -999 281 -999
2009-03-30 06:28:20 51°13.663 2°55.958 127.3 -999 216 5.6
2009-03-30 06:28:25 51°13.663 2°55.958 127.2 -999 100 5.7
2009-03-30 06:28:30 51°13.663 2°55.958 127.1 -999 23 5.6
2009-03-30 06:28:35 51°13.663 2°55.958 127.1 -999 239 5.7
2009-03-30 06:28:40 51°13.663 2°55.958 127 -999 155 5.7
2009-03-30 06:28:46 51°13.663 2°55.958 126.9 -999 15 -999
2009-03-30 06:28:51 51°13.663 2°55.958 126.8 -999 20 5.7
2009-03-30 06:28:55 51°13.663 2°55.958 126.8 -999 326 5.7
2009-03-30 06:29:00 51°13.663 2°55.958 126.8 -999 66 5.6
2009-03-30 06:29:05 51°13.663 2°55.958 126.8 -999 207 5.6
2009-03-30 06:29:10 51°13.663 2°55.958 126.9 -999 125 5.7
2009-03-30 06:29:15 51°13.663 2°55.958 126.9 -999 35 5.6
2009-03-30 06:29:20 51°13.664 2°55.958 126.9 -999 310 5.6
2009-03-30 06:29:25 51°13.663 2°55.958 126.9 -999 248 5.6
2009-03-30 06:29:30 51°13.664 2°55.958 126.9 -999 41 5.6
2009-03-30 06:29:35 51°13.664 2°55.958 126.8 -999 150 5.6
2009-03-30 06:29:40 51°13.664 2°55.958 126.7 -999 -999 5.6
2009-03-30 06:29:45 51°13.664 2°55.958 126.6 -999 309 5.6
2009-03-30 06:29:50 51°13.664 2°55.958 126.5 -999 116 5.6
2009-03-30 06:29:55 51°13.664 2°55.958 126.4 0.1 240 5.6
2009-03-30 06:30:00 51°13.664 2°55.958 126.3 -999 271 5.6
2009-03-30 06:30:05 51°13.664 2°55.958 126.3 -999 111 5.6
2009-03-30 06:30:10 51°13.664 2°55.958 126.1 -999 112 5.6
2009-03-30 06:30:15 51°13.665 2°55.958 126 -999 342 5.6
2009-03-30 06:30:20 51°13.665 2°55.959 125.9 -999 45 5.6
2009-03-30 06:30:25 51°13.665 2°55.958 125.9 -999 157 5.6
2009-03-30 06:30:30 51°13.664 2°55.958 125.9 -999 121 5.6
2009-03-30 06:30:35 51°13.664 2°55.958 125.9 0.1 45 5.6
2009-03-30 06:30:40 51°13.663 2°55.958 125.9 -999 54 5.5
2009-03-30 06:30:45 51°13.663 2°55.958 126 -999 127 5.5
2009-03-30 06:30:50 51°13.663 2°55.957 126 -999 140 5.6
2009-03-30 06:30:55 51°13.663 2°55.957 126 -999 197 5.6
2009-03-30 06:31:00 51°13.663 2°55.957 126 -999 181 5.6
2009-03-30 06:31:05 51°13.662 2°55.957 126 -999 39 5.6
2009-03-30 06:31:10 51°13.662 2°55.957 126 -999 294 5.5
2009-03-30 06:31:15 51°13.662 2°55.957 126 -999 263 5.5
2009-03-30 06:31:19 51°13.662 2°55.958 126 0.1 13 5.6
2009-03-30 06:31:25 51°13.663 2°55.958 125.9 -999 78 5.5
2009-03-30 06:31:30 51°13.663 2°55.957 125.9 0.1 248 5.5
2009-03-30 06:31:35 51°13.663 2°55.958 125.9 -999 227 5.7
2009-03-30 06:31:40 51°13.664 2°55.958 125.9 -999 30 5.6
2009-03-30 06:31:45 51°13.664 2°55.958 125.9 -999 215 5.6
2009-03-30 06:31:50 51°13.664 2°55.958 125.9 -999 326 5.6
2009-03-30 06:31:55 51°13.664 2°55.958 125.9 -999 208 5.6
2009-03-30 06:32:00 51°13.664 2°55.958 125.9 -999 9 5.6
2009-03-30 06:32:05 51°13.664 2°55.958 125.9 -999 45 5.6
2009-03-30 06:32:10 51°13.663 2°55.958 125.9 -999 79 5.6
2009-03-30 06:32:15 51°13.663 2°55.958 125.9 -999 263 5.6
2009-03-30 06:32:19 51°13.663 2°55.958 125.9 -999 96 5.6
2009-03-30 06:32:25 51°13.663 2°55.958 125.9 -999 201 5.6
2009-03-30 06:32:30 51°13.663 2°55.957 125.9 -999 55 5.5
2009-03-30 06:32:35 51°13.663 2°55.957 125.9 -999 99 5.5
2009-03-30 06:32:40 51°13.663 2°55.958 125.9 -999 42 5.5
2009-03-30 06:32:45 51°13.663 2°55.958 126 -999 237 5.5
2009-03-30 06:32:50 51°13.664 2°55.958 126 -999 331 5.5
2009-03-30 06:32:55 51°13.663 2°55.957 126 -999 301 5.5
2009-03-30 06:33:01 51°13.662 2°55.957 126 -999 258 5.5
2009-03-30 06:33:05 51°13.662 2°55.957 126 -999 66 5.5
2009-03-30 06:33:10 51°13.662 2°55.957 126 -999 126 5.6
2009-03-30 06:33:15 51°13.662 2°55.957 126 -999 90 5.6
2009-03-30 06:33:20 51°13.662 2°55.957 126.3 0.1 126 5.6
2009-03-30 06:33:25 51°13.662 2°55.957 126.6 0.1 135 5.6
2009-03-30 06:33:30 51°13.662 2°55.958 127.1 0.1 104 -999
2009-03-30 06:33:35 51°13.662 2°55.958 127.5 0.1 160 5.6
2009-03-30 06:33:41 51°13.662 2°55.958 128.1 -999 93 -999
2009-03-30 06:33:46 51°13.662 2°55.958 128.6 -999 175 -999
2009-03-30 06:33:52 51°13.662 2°55.958 128.7 -999 204 -999
2009-03-30 06:33:57 51°13.662 2°55.958 128.8 -999 213 -999
2009-03-30 06:34:02 51°13.662 2°55.958 129.1 -999 359 -999
2009-03-30 06:34:07 51°13.662 2°55.958 129.1 -999 68 5.7
2009-03-30 06:34:13 51°13.662 2°55.958 129.1 -999 126 -999
2009-03-30 06:34:18 51°13.662 2°55.958 129 -999 233 5.6
2009-03-30 06:34:22 51°13.663 2°55.958 128.9 0.1 69 5.6
2009-03-30 06:34:27 51°13.663 2°55.958 128.9 -999 112 5.6
2009-03-30 06:34:32 51°13.663 2°55.958 128.8 -999 58 5.6
2009-03-30 06:34:37 51°13.663 2°55.958 128.7 -999 183 5.6
2009-03-30 06:34:42 51°13.663 2°55.958 128.6 -999 205 5.6
2009-03-30 06:34:46 51°13.663 2°55.958 128.6 -999 262 5.6
2009-03-30 06:34:51 51°13.663 2°55.958 128.6 -999 152 5.6
2009-03-30 06:34:56 51°13.663 2°55.958 128.6 -999 262 5.6
2009-03-30 06:35:01 51°13.663 2°55.958 128.6 -999 32 5.6
2009-03-30 06:35:06 51°13.663 2°55.958 128.6 -999 9 5.6
2009-03-30 06:35:10 51°13.663 2°55.958 128.7 -999 251 5.6
2009-03-30 06:35:15 51°13.663 2°55.958 128.7 0.1 4 5.6
2009-03-30 06:35:21 51°13.663 2°55.958 128.8 -999 98 -999
2009-03-30 06:35:26 51°13.663 2°55.958 128.8 -999 353 -999
2009-03-30 06:35:31 51°13.663 2°55.958 129 -999 160 -999
2009-03-30 06:35:37 51°13.663 2°55.958 129.2 -999 314 -999
2009-03-30 06:35:42 51°13.663 2°55.958 129.2 -999 135 5.6
2009-03-30 06:35:47 51°13.663 2°55.958 129.3 -999 82 5.6
2009-03-30 06:35:52 51°13.663 2°55.958 129.3 -999 192 -999
2009-03-30 06:35:57 51°13.663 2°55.958 129.3 -999 297 5.5
2009-03-30 06:36:02 51°13.663 2°55.958 129.3 -999 158 5.6
2009-03-30 06:36:06 51°13.663 2°55.958 129.3 -999 197 5.6
2009-03-30 06:36:11 51°13.663 2°55.958 129.3 -999 42 5.6
2009-03-30 06:36:16 51°13.663 2°55.958 129.3 -999 69 5.6
2009-03-30 06:36:21 51°13.663 2°55.958 129.3 -999 43 5.6
2009-03-30 06:36:26 51°13.663 2°55.958 129.3 0.1 14 5.6
2009-03-30 06:36:31 51°13.663 2°55.958 129.3 0.1 104 5.6
2009-03-30 06:36:36 51°13.663 2°55.958 129 0.1 77 5.7
2009-03-30 06:36:41 51°13.663 2°55.958 128.4 0.1 89 5.6
2009-03-30 06:36:45 51°13.663 2°55.959 127.7 0.1 57 5.6
2009-03-30 06:36:50 51°13.663 2°55.958 126.8 -999 127 5.5
2009-03-30 06:36:55 51°13.663 2°55.958 125.9 -999 63 5.6
2009-03-30 06:37:01 51°13.663 2°55.958 125.6 -999 330 5.5
2009-03-30 06:37:06 51°13.663 2°55.958 125.3 -999 118 5.6
2009-03-30 06:37:10 51°13.663 2°55.958 124.9 0.1 187 5.6
2009-03-30 06:37:15 51°13.663 2°55.958 124.4 -999 147 5.5
2009-03-30 06:37:21 51°13.663 2°55.958 123.7 -999 174 5.6
2009-03-30 06:37:26 51°13.663 2°55.958 123.2 -999 192 5.5
2009-03-30 06:37:31 51°13.663 2°55.958 122.7 -999 230 5.5
2009-03-30 06:37:35 51°13.663 2°55.958 122.1 -999 267 5.6
2009-03-30 06:37:40 51°13.663 2°55.958 121.5 -999 201 5.5
2009-03-30 06:37:45 51°13.662 2°55.958 121 -999 193 5.5
2009-03-30 06:37:50 51°13.662 2°55.958 120.4 -999 267 5.6
2009-03-30 06:37:55 51°13.662 2°55.958 119.8 -999 206 5.5
2009-03-30 06:38:00 51°13.662 2°55.958 119.1 -999 183 5.5
2009-03-30 06:38:05 51°13.662 2°55.958 118.5 0.1 198 5.5
2009-03-30 06:38:10 51°13.662 2°55.958 117.8 -999 207 5.5
2009-03-30 06:38:15 51°13.662 2°55.958 117.3 0.1 188 5.6
2009-03-30 06:38:19 51°13.662 2°55.958 116.7 0.1 220 5.5
2009-03-30 06:38:25 51°13.662 2°55.958 116 0.1 222 5.5
2009-03-30 06:38:30 51°13.662 2°55.958 115.3 0.1 214 5.5
2009-03-30 06:38:35 51°13.662 2°55.958 114.6 0.1 234 5.5
2009-03-30 06:38:40 51°13.662 2°55.958 113.9 0.1 304 5.5
2009-03-30 06:38:45 51°13.662 2°55.957 113.4 0.4 291 5.5
2009-03-30 06:38:50 51°13.662 2°55.956 113.3 0.7 296 5.5
2009-03-30 06:38:55 51°13.663 2°55.953 113.3 1.2 289 5.5
2009-03-30 06:39:00 51°13.664 2°55.95 113.8 1.5 297 5.6
2009-03-30 06:39:05 51°13.665 2°55.947 114.4 1.6 294 5.7
2009-03-30 06:39:10 51°13.666 2°55.944 115 1.7 297 -999
2009-03-30 06:39:17 51°13.667 2°55.939 115.8 1.7 297 -999
2009-03-30 06:39:22 51°13.669 2°55.936 116.4 1.7 299 4.7
2009-03-30 06:39:27 51°13.67 2°55.932 117 1.7 302 -999
2009-03-30 06:39:33 51°13.671 2°55.928 117.3 1.8 302 -999
2009-03-30 06:39:38 51°13.673 2°55.925 117.7 1.8 301 -999
2009-03-30 06:39:43 51°13.674 2°55.921 117.7 1.9 302 4.8
2009-03-30 06:39:48 51°13.676 2°55.917 117.7 1.9 301 4.7
2009-03-30 06:39:54 51°13.677 2°55.913 117.7 1.9 300 -999
2009-03-30 06:39:58 51°13.678 2°55.91 117.6 2.1 300 -999
2009-03-30 06:40:03 51°13.68 2°55.906 117.1 2.2 299 -999
2009-03-30 06:40:09 51°13.682 2°55.9 116.3 2.3 298 -999
2009-03-30 06:40:14 51°13.683 2°55.896 115.5 2.4 297 -999
2009-03-30 06:40:19 51°13.685 2°55.891 114.3 2.5 296 -999
2009-03-30 06:40:24 51°13.686 2°55.886 113.3 2.6 295 -999
2009-03-30 06:40:29 51°13.688 2°55.88 111.9 2.7 293 -999
2009-03-30 06:40:34 51°13.689 2°55.875 110.2 2.8 292 -999
2009-03-30 06:40:39 51°13.691 2°55.869 108.5 2.9 290 -999
2009-03-30 06:40:44 51°13.692 2°55.862 106.8 2.9 289 -999
2009-03-30 06:40:49 51°13.693 2°55.856 105.3 3 288 -999
2009-03-30 06:40:54 51°13.694 2°55.85 103.6 3 285 -999
2009-03-30 06:40:59 51°13.695 2°55.843 102.5 3 285 -999
2009-03-30 06:41:04 51°13.696 2°55.837 101.3 3 284 -999
2009-03-30 06:41:09 51°13.697 2°55.83 100.2 3 284 -999
2009-03-30 06:41:14 51°13.698 2°55.824 98.9 3 282 -999
2009-03-30 06:41:19 51°13.699 2°55.818 97.7 3 282 -999
2009-03-30 06:41:24 51°13.7 2°55.811 96.4 3 280 -999
2009-03-30 06:41:29 51°13.701 2°55.805 95.2 3 280 -999
2009-03-30 06:41:34 51°13.701 2°55.798 94.1 3 279 -999
2009-03-30 06:41:39 51°13.702 2°55.792 93 3 277 -999
2009-03-30 06:41:44 51°13.702 2°55.785 92.1 2.9 277 -999
2009-03-30 06:41:49 51°13.703 2°55.779 91.2 2.8 277 -999
2009-03-30 06:41:54 51°13.703 2°55.773 90.3 2.7 275 -999
2009-03-30 06:41:59 51°13.703 2°55.768 89.4 2.6 275 -999
2009-03-30 06:42:04 51°13.703 2°55.762 88.6 2.5 273 -999
2009-03-30 06:42:09 51°13.704 2°55.757 87.9 2.3 275 -999
2009-03-30 06:42:14 51°13.704 2°55.753 87.1 1.9 274 -999
2009-03-30 06:42:19 51°13.704 2°55.749 85.6 1.6 274 -999
2009-03-30 06:42:24 51°13.704 2°55.746 83.5 1.3 276 -999
2009-03-30 06:42:29 51°13.704 2°55.744 80.6 1 278 11.1
2009-03-30 06:42:34 51°13.704 2°55.743 78 0.8 282 11.1
2009-03-30 06:42:38 51°13.705 2°55.742 75.6 0.6 293 11.5
2009-03-30 06:42:43 51°13.705 2°55.741 72.6 0.4 312 11.5
2009-03-30 06:42:48 51°13.706 2°55.741 69.6 0.4 355 11.1
2009-03-30 06:42:53 51°13.706 2°55.741 66.4 0.5 19 11.5
2009-03-30 06:42:58 51°13.707 2°55.742 62.8 0.6 25 11.1
2009-03-30 06:43:02 51°13.708 2°55.742 59 0.8 32 11.5
2009-03-30 06:43:07 51°13.709 2°55.743 55 0.9 33 11.7
2009-03-30 06:43:12 51°13.71 2°55.745 50.6 0.9 32 11.1
2009-03-30 06:43:17 51°13.711 2°55.746 46.3 0.9 27 11.2
2009-03-30 06:43:22 51°13.712 2°55.746 43 0.8 28 11.1
2009-03-30 06:43:26 51°13.713 2°55.746 40.2 0.6 18 11.1
2009-03-30 06:43:31 51°13.713 2°55.747 37.6 0.4 13 11.1
2009-03-30 06:43:36 51°13.713 2°55.747 34.8 0.2 347 11.1
2009-03-30 06:43:41 51°13.713 2°55.746 32.1 0.2 251 11.1
2009-03-30 06:43:46 51°13.713 2°55.746 29.7 0.4 230 11.1
2009-03-30 06:43:50 51°13.713 2°55.746 27.7 0.5 219 11.1
2009-03-30 06:43:55 51°13.712 2°55.745 25.9 0.7 214 11.1
2009-03-30 06:43:59 51°13.711 2°55.744 24 0.9 208 11.1
2009-03-30 06:44:05 51°13.71 2°55.743 22.4 0.9 209 11.1
2009-03-30 06:44:10 51°13.709 2°55.742 21.1 0.9 208 11.1
2009-03-30 06:44:16 51°13.707 2°55.741 19.6 0.9 207 -999
2009-03-30 06:44:22 51°13.706 2°55.74 18.2 0.5 219 -999
2009-03-30 06:44:27 51°13.706 2°55.74 17.2 0.1 304 4.6
2009-03-30 06:44:31 51°13.707 2°55.74 14.5 0.7 351 4.6
2009-03-30 06:44:36 51°13.708 2°55.74 10.6 1.2 358 4.6
2009-03-30 06:44:41 51°13.711 2°55.74 4.6 1.7 352 4.7
2009-03-30 06:44:46 51°13.713 2°55.739 357.7 2.1 349 11.1
2009-03-30 06:44:51 51°13.717 2°55.737 350.3 2.4 344 11
2009-03-30 06:44:56 51°13.72 2°55.735 343.3 3 339 11
2009-03-30 06:45:01 51°13.725 2°55.731 338.9 3.6 335 10.9
2009-03-30 06:45:05 51°13.728 2°55.728 334.1 4.2 331 10.9
2009-03-30 06:45:10 51°13.734 2°55.723 330.4 4.6 330 10.8
2009-03-30 06:45:15 51°13.74 2°55.717 329.3 5 329 11
2009-03-30 06:45:19 51°13.745 2°55.712 329 5.6 328 10.9
2009-03-30 06:45:25 51°13.754 2°55.704 329.3 6 328 10.1
2009-03-30 06:45:30 51°13.761 2°55.697 329.7 6.4 329 9.9
2009-03-30 06:45:35 51°13.769 2°55.689 329.7 6.7 329 9.7
2009-03-30 06:45:40 51°13.777 2°55.681 330.2 7.1 331 9.8
2009-03-30 06:45:45 51°13.786 2°55.673 331 7.3 330 9.7
2009-03-30 06:45:50 51°13.795 2°55.665 331.9 7.6 331 9.8
2009-03-30 06:45:55 51°13.805 2°55.657 332.4 7.8 331 9.8
2009-03-30 06:46:00 51°13.815 2°55.648 332.6 8 332 9.7
2009-03-30 06:46:05 51°13.825 2°55.64 333.1 8.2 332 9.7
2009-03-30 06:46:10 51°13.835 2°55.632 333.9 8.4 333 9.7
2009-03-30 06:46:15 51°13.846 2°55.623 334.1 8.5 332 9.7
2009-03-30 06:46:20 51°13.856 2°55.615 334.7 8.7 334 10
2009-03-30 06:46:25 51°13.867 2°55.606 335.2 8.8 333 10.1
2009-03-30 06:46:30 51°13.879 2°55.598 335.2 8.9 334 10.1
2009-03-30 06:46:35 51°13.89 2°55.589 335.5 9 334 10.2
2009-03-30 06:46:41 51°13.903 2°55.578 335.8 9.1 334 10.1
2009-03-30 06:46:45 51°13.912 2°55.571 335.4 9.2 333 10.1
2009-03-30 06:46:50 51°13.924 2°55.562 335.6 9.2 335 10.2
2009-03-30 06:46:55 51°13.935 2°55.554 336.2 9.3 334 10.1
2009-03-30 06:47:00 51°13.947 2°55.545 335.9 9.3 334 10.2
2009-03-30 06:47:05 51°13.959 2°55.535 335.7 9.4 334 10.1
2009-03-30 06:47:10 51°13.97 2°55.527 336.2 9.4 335 10.1
2009-03-30 06:47:15 51°13.982 2°55.518 336.5 9.4 335 10.1
2009-03-30 06:47:19 51°13.991 2°55.511 337.2 9.4 336 10.1
2009-03-30 06:47:25 51°14.005 2°55.5 337.4 9.4 336 10.1
2009-03-30 06:47:30 51°14.017 2°55.492 337.5 9.3 336 9.9
2009-03-30 06:47:35 51°14.029 2°55.484 338.2 9.4 337 10.1
2009-03-30 06:47:40 51°14.041 2°55.476 338.3 9.4 337 10.1
2009-03-30 06:47:45 51°14.053 2°55.467 338.1 9.4 336 10.1
2009-03-30 06:47:50 51°14.065 2°55.459 337.5 9.4 336 10.1
2009-03-30 06:47:55 51°14.077 2°55.451 337.4 9.4 336 10.1
2009-03-30 06:48:00 51°14.089 2°55.442 337.1 9.4 334 10.1
2009-03-30 06:48:05 51°14.101 2°55.433 336.1 9.4 333 10.1
2009-03-30 06:48:10 51°14.112 2°55.423 335.3 9.4 333 10.1
2009-03-30 06:48:15 51°14.124 2°55.414 334.6 9.4 333 10.1
2009-03-30 06:48:20 51°14.135 2°55.404 334.2 9.4 333 10.2
2009-03-30 06:48:25 51°14.147 2°55.394 334.6 9.4 333 10.1
2009-03-30 06:48:30 51°14.158 2°55.385 334.5 9.4 332 10.1
2009-03-30 06:48:35 51°14.169 2°55.374 333.6 9.3 331 10.2
2009-03-30 06:48:39 51°14.178 2°55.367 333 9.3 330 10.2
2009-03-30 06:48:45 51°14.192 2°55.354 331.3 9.3 327 10.2
2009-03-30 06:48:50 51°14.203 2°55.342 328.2 9.4 325 10.2
2009-03-30 06:48:55 51°14.213 2°55.33 325.8 9.5 323 10.2
2009-03-30 06:49:00 51°14.224 2°55.317 324.2 9.5 322 10.2
2009-03-30 06:49:06 51°14.236 2°55.301 323.3 9.6 321 10.2
2009-03-30 06:49:10 51°14.244 2°55.29 322.4 9.6 320 10.2
2009-03-30 06:49:15 51°14.254 2°55.275 321.1 9.6 318 10.2
2009-03-30 06:49:19 51°14.262 2°55.264 319.4 9.7 317 10.2
2009-03-30 06:49:25 51°14.273 2°55.246 317.5 9.8 316 10.1
2009-03-30 06:49:30 51°14.283 2°55.231 316.8 9.8 315 10.6
2009-03-30 06:49:35 51°14.292 2°55.215 315.8 9.9 314 10.3
2009-03-30 06:49:40 51°14.302 2°55.199 314.6 10 313 10.1
2009-03-30 06:49:45 51°14.311 2°55.182 313.9 10.2 313 10.2
2009-03-30 06:49:50 51°14.321 2°55.166 313.8 10.3 313 10.2
2009-03-30 06:49:55 51°14.331 2°55.149 314 10.3 313 10.2
2009-03-30 06:49:59 51°14.338 2°55.136 313.9 10.4 312 10.2
2009-03-30 06:50:05 51°14.35 2°55.115 313.6 10.4 312 10.2
2009-03-30 06:50:10 51°14.359 2°55.098 313.1 10.4 310 10.2
2009-03-30 06:50:15 51°14.369 2°55.08 311.9 10.4 311 10.5
2009-03-30 06:50:20 51°14.378 2°55.063 311.3 10.5 310 10.3
2009-03-30 06:50:25 51°14.387 2°55.045 311.4 10.4 310 10.2
2009-03-30 06:50:30 51°14.396 2°55.027 311.5 10.4 309 10.1
2009-03-30 06:50:35 51°14.405 2°55.009 310.6 10.4 308 9.9
2009-03-30 06:50:39 51°14.412 2°54.994 308.6 10.3 303 9.8
2009-03-30 06:50:45 51°14.42 2°54.97 304.7 10.2 298 9.7
2009-03-30 06:50:50 51°14.426 2°54.949 299.8 10.3 293 9.9
2009-03-30 06:50:55 51°14.43 2°54.928 293.5 10.4 288 10
2009-03-30 06:51:00 51°14.434 2°54.905 288.7 10.6 284 10.1
2009-03-30 06:51:05 51°14.437 2°54.882 285.5 10.7 279 10.1
2009-03-30 06:51:10 51°14.438 2°54.858 281 10.8 274 10.2
2009-03-30 06:51:15 51°14.438 2°54.834 275.8 10.9 270 10.1
2009-03-30 06:51:19 51°14.438 2°54.815 271 11 266 10.2
2009-03-30 06:51:25 51°14.435 2°54.786 266.5 11.2 262 10.1
2009-03-30 06:51:30 51°14.432 2°54.761 262.6 11.4 259 10.1
2009-03-30 06:51:35 51°14.428 2°54.736 259.1 11.5 256 10.1
2009-03-30 06:51:40 51°14.423 2°54.712 255.4 11.7 252 10
2009-03-30 06:51:46 51°14.416 2°54.683 252.2 11.8 249 10
2009-03-30 06:51:50 51°14.411 2°54.663 249.5 11.9 247 9.9
2009-03-30 06:51:55 51°14.404 2°54.639 246.8 12.1 245 9.9
2009-03-30 06:51:59 51°14.399 2°54.619 245.8 12.2 247 9.9
2009-03-30 06:52:05 51°14.39 2°54.589 246.7 12.3 245 9.8
2009-03-30 06:52:10 51°14.383 2°54.565 244.6 12.3 242 9.5
2009-03-30 06:52:14 51°14.376 2°54.546 242.3 12.4 242 9.1
2009-03-30 06:52:20 51°14.367 2°54.517 242.4 12.4 242 8.9
2009-03-30 06:52:25 51°14.359 2°54.492 242.5 12.4 243 8.8
2009-03-30 06:52:30 51°14.351 2°54.468 242.6 12.5 242 8.8
2009-03-30 06:52:35 51°14.343 2°54.444 242.9 12.5 243 8.7
2009-03-30 06:52:40 51°14.335 2°54.419 243.2 12.5 243 8.6
2009-03-30 06:52:45 51°14.327 2°54.394 243.2 12.6 243 8.6
2009-03-30 06:52:50 51°14.319 2°54.369 243.4 12.5 242 8.6
2009-03-30 06:52:54 51°14.313 2°54.35 243.1 12.6 243 8.6
2009-03-30 06:53:00 51°14.303 2°54.32 242.7 12.6 243 8.6
2009-03-30 06:53:05 51°14.295 2°54.296 242.5 12.5 241 8.5
2009-03-30 06:53:10 51°14.288 2°54.272 242.5 11.9 244 8.5
2009-03-30 06:53:15 51°14.28 2°54.249 242.9 11.4 243 8.4
2009-03-30 06:53:20 51°14.275 2°54.228 245.1 10.4 250 8.4
2009-03-30 06:53:25 51°14.272 2°54.207 252.1 9.5 257 8.5
2009-03-30 06:53:30 51°14.271 2°54.188 259.9 8.6 263 8.6
2009-03-30 06:53:35 51°14.27 2°54.17 267 8 266 8.6
2009-03-30 06:53:40 51°14.271 2°54.153 273.2 7.4 274 8.7
2009-03-30 06:53:45 51°14.272 2°54.138 280.2 6.9 281 8.7
2009-03-30 06:53:50 51°14.274 2°54.124 287.2 6.7 285 8.6
2009-03-30 06:53:54 51°14.277 2°54.113 294.8 6.2 294 8.8
2009-03-30 06:54:00 51°14.282 2°54.099 302.8 5.9 300 8.7
2009-03-30 06:54:06 51°14.287 2°54.087 310.2 5.6 306 8.8
2009-03-30 06:54:10 51°14.292 2°54.08 318 5.4 313 8.8
2009-03-30 06:54:15 51°14.297 2°54.072 325.4 5.3 319 8.9
2009-03-30 06:54:20 51°14.303 2°54.065 332.7 5.4 326 8.9
2009-03-30 06:54:25 51°14.31 2°54.059 339.1 5.5 332 8.9
2009-03-30 06:54:30 51°14.318 2°54.054 344.8 5.8 338 8.9
2009-03-30 06:54:34 51°14.324 2°54.051 349.6 6.1 342 8.9
2009-03-30 06:54:40 51°14.334 2°54.047 353.9 6.4 348 9
2009-03-30 06:54:46 51°14.345 2°54.045 358.3 6.6 352 9
2009-03-30 06:54:51 51°14.354 2°54.044 2.5 6.9 356 9
2009-03-30 06:54:55 51°14.362 2°54.043 5.6 7.1 359 9.1
2009-03-30 06:55:01 51°14.375 2°54.044 8 7.5 2 9.1
2009-03-30 06:55:06 51°14.386 2°54.045 11 7.9 5 9.2
2009-03-30 06:55:11 51°14.397 2°54.047 12.8 8.3 5 9.3
2009-03-30 06:55:16 51°14.409 2°54.048 12.1 8.5 4 9.2
2009-03-30 06:55:21 51°14.421 2°54.05 11.7 8.9 5 9.2
2009-03-30 06:55:26 51°14.434 2°54.051 11.5 9.3 3 9.2
2009-03-30 06:55:31 51°14.448 2°54.052 11 9.6 4 9.2
2009-03-30 06:55:36 51°14.461 2°54.054 10.8 9.8 4 9.2
2009-03-30 06:55:41 51°14.475 2°54.055 10.6 10 4 9.2
2009-03-30 06:55:46 51°14.489 2°54.056 10.5 10.2 3 9.3
2009-03-30 06:55:51 51°14.503 2°54.058 10.3 10.4 4 9.3
2009-03-30 06:55:56 51°14.518 2°54.06 10.5 10.6 4 9.5
2009-03-30 06:56:01 51°14.533 2°54.062 10.8 10.7 4 10.1
2009-03-30 06:56:06 51°14.548 2°54.063 11 10.9 4 10.4
2009-03-30 06:56:11 51°14.564 2°54.065 11 11.1 4 10.4
2009-03-30 06:56:15 51°14.576 2°54.067 10.8 11.2 4 10.5
2009-03-30 06:56:21 51°14.595 2°54.069 10.9 11.2 5 10.4
2009-03-30 06:56:26 51°14.61 2°54.071 10.9 11.3 5 10.5
2009-03-30 06:56:31 51°14.626 2°54.074 11.1 11.4 5 10.4
2009-03-30 06:56:36 51°14.642 2°54.076 11.2 11.4 5 10.4
2009-03-30 06:56:41 51°14.658 2°54.078 11.6 11.4 6 10.4
2009-03-30 06:56:46 51°14.673 2°54.081 12.3 11.5 6 10.5
2009-03-30 06:56:51 51°14.689 2°54.084 12.9 11.5 8 10.5
2009-03-30 06:56:56 51°14.705 2°54.088 13.4 11.5 7 9.9
2009-03-30 06:57:01 51°14.721 2°54.091 13.8 11.5 8 9.8
2009-03-30 06:57:06 51°14.736 2°54.094 14.1 11.4 7 9.6
2009-03-30 06:57:11 51°14.752 2°54.098 13.9 11.4 7 9.3
2009-03-30 06:57:16 51°14.768 2°54.101 13.7 11.5 8 9.2
2009-03-30 06:57:21 51°14.784 2°54.105 13.9 11.4 8 9.3
2009-03-30 06:57:26 51°14.799 2°54.108 14.1 11.4 7 9.1
2009-03-30 06:57:31 51°14.815 2°54.111 13.5 11.4 8 8.9
2009-03-30 06:57:35 51°14.828 2°54.113 12.7 11.4 6 8.9
2009-03-30 06:57:41 51°14.847 2°54.117 12.4 11.4 7 8.8
2009-03-30 06:57:46 51°14.862 2°54.119 11.5 11.4 5 8.7
2009-03-30 06:57:51 51°14.878 2°54.122 11.6 11.4 6 8.6
2009-03-30 06:57:56 51°14.894 2°54.124 11.2 11.4 5 8.5
2009-03-30 06:58:00 51°14.906 2°54.126 11.1 11.5 6 8.5
2009-03-30 06:58:06 51°14.925 2°54.128 10.7 11.5 5 8.4
2009-03-30 06:58:10 51°14.938 2°54.131 11 11.5 6 8.4
2009-03-30 06:58:14 51°14.951 2°54.132 10.6 11.5 4 8.3
2009-03-30 06:58:20 51°14.97 2°54.135 11.2 11.4 6 8.1
2009-03-30 06:58:26 51°14.989 2°54.137 11 11.5 4 8.1
2009-03-30 06:58:31 51°15.005 2°54.141 11 11.4 8 8.2
2009-03-30 06:58:36 51°15.02 2°54.144 12.2 11.3 7 8.2
2009-03-30 06:58:41 51°15.036 2°54.146 12 11.4 6 8.1
2009-03-30 06:58:46 51°15.052 2°54.149 11.8 11.5 7 8
2009-03-30 06:58:51 51°15.068 2°54.151 11.6 11.3 5 8
2009-03-30 06:58:56 51°15.083 2°54.153 11 11.3 5 8
2009-03-30 06:59:00 51°15.096 2°54.155 10.8 11.4 5 8
2009-03-30 06:59:06 51°15.115 2°54.158 11 11.4 5 7.9
2009-03-30 06:59:11 51°15.131 2°54.16 10.7 11.4 5 7.7
2009-03-30 06:59:16 51°15.147 2°54.163 11 11.5 6 8
2009-03-30 06:59:20 51°15.159 2°54.165 11.1 11.5 6 8.9
2009-03-30 06:59:25 51°15.175 2°54.168 11.5 11.6 7 10.3
2009-03-30 06:59:31 51°15.195 2°54.173 13.1 11.9 8 10.4
2009-03-30 06:59:35 51°15.208 2°54.176 13.2 12 8 10.5
2009-03-30 06:59:40 51°15.225 2°54.18 13.5 12 9 10.4
2009-03-30 06:59:45 51°15.241 2°54.183 13.9 12 8 10.5
2009-03-30 06:59:50 51°15.258 2°54.188 13.3 12 8 10.7
2009-03-30 06:59:55 51°15.274 2°54.191 12.7 12 8 10.5
2009-03-30 07:00:00 51°15.29 2°54.195 13.1 11.9 8 9.2
2009-03-30 07:00:04 51°15.303 2°54.197 13.2 11.8 8 8.9
2009-03-30 07:00:10 51°15.323 2°54.202 13.4 11.7 8 8.7
2009-03-30 07:00:15 51°15.339 2°54.205 13.5 11.6 8 8.7
2009-03-30 07:00:20 51°15.354 2°54.209 13.9 11.5 9 8.7
2009-03-30 07:00:25 51°15.37 2°54.212 14.3 11.6 8 8.6
2009-03-30 07:00:31 51°15.389 2°54.217 14.4 11.7 8 8.7
2009-03-30 07:00:35 51°15.402 2°54.219 13.9 11.7 8 8.7
2009-03-30 07:00:40 51°15.418 2°54.223 14 11.6 9 8.8
2009-03-30 07:00:44 51°15.431 2°54.226 14.2 11.7 9 8.8
2009-03-30 07:00:50 51°15.45 2°54.231 14.1 11.7 8 8.9
2009-03-30 07:00:55 51°15.467 2°54.234 14.1 11.7 8 8.9
2009-03-30 07:01:00 51°15.483 2°54.238 13.9 11.7 8 9
2009-03-30 07:01:05 51°15.499 2°54.241 13.9 11.7 8 9.1
2009-03-30 07:01:11 51°15.518 2°54.246 13.9 11.7 9 9.1
2009-03-30 07:01:15 51°15.531 2°54.249 14.2 11.7 8 9.1
2009-03-30 07:01:20 51°15.547 2°54.253 14.3 11.7 8 9.2
2009-03-30 07:01:26 51°15.566 2°54.257 14.2 11.7 8 9.2
2009-03-30 07:01:31 51°15.582 2°54.26 14.1 11.7 8 9.3
2009-03-30 07:01:36 51°15.598 2°54.264 13.9 11.7 8 9.4
2009-03-30 07:01:40 51°15.611 2°54.267 13.8 11.7 8 9.3
2009-03-30 07:01:45 51°15.628 2°54.27 13.3 11.8 7 9.4
2009-03-30 07:01:51 51°15.647 2°54.274 13.2 11.7 8 9.5
2009-03-30 07:01:55 51°15.66 2°54.277 13.2 11.8 8 9.5
2009-03-30 07:02:01 51°15.679 2°54.281 13.2 11.8 7 9.6
2009-03-30 07:02:06 51°15.695 2°54.284 13.2 11.8 8 9.6
2009-03-30 07:02:11 51°15.711 2°54.288 13.5 11.8 8 9.6
2009-03-30 07:02:16 51°15.728 2°54.291 13.5 11.8 8 9.7
2009-03-30 07:02:21 51°15.744 2°54.295 13.3 11.8 7 9.7
2009-03-30 07:02:26 51°15.76 2°54.298 13.2 11.8 8 9.8
2009-03-30 07:02:31 51°15.776 2°54.302 13.3 11.7 8 9.8
2009-03-30 07:02:36 51°15.792 2°54.306 13.7 11.7 8 9.9
2009-03-30 07:02:41 51°15.808 2°54.309 13.5 11.6 8 10
2009-03-30 07:02:45 51°15.82 2°54.312 13.1 11.5 8 10
2009-03-30 07:02:51 51°15.839 2°54.316 12.7 11.3 7 10
2009-03-30 07:02:56 51°15.854 2°54.319 12.6 11.1 7 10
2009-03-30 07:03:01 51°15.87 2°54.321 12.4 11 6 10.1
2009-03-30 07:03:06 51°15.885 2°54.324 12.4 10.9 7 10.1
2009-03-30 07:03:11 51°15.899 2°54.327 12.4 10.8 7 10.1
2009-03-30 07:03:16 51°15.914 2°54.33 12.4 10.6 7 10.3
2009-03-30 07:03:21 51°15.928 2°54.333 12.4 10.5 7 10.4
2009-03-30 07:03:26 51°15.943 2°54.336 12.6 10.4 7 10.4
2009-03-30 07:03:31 51°15.957 2°54.339 12.4 10.3 7 10.4
2009-03-30 07:03:36 51°15.971 2°54.341 12.3 10.2 6 10.5
2009-03-30 07:03:41 51°15.985 2°54.343 12.3 10.2 6 10.4
2009-03-30 07:03:46 51°15.999 2°54.346 12.2 10 6 10.5
2009-03-30 07:03:51 51°16.012 2°54.348 11.8 9.9 6 10.4
2009-03-30 07:03:56 51°16.026 2°54.35 11.7 9.8 6 10.5
2009-03-30 07:04:01 51°16.039 2°54.352 12.1 9.7 6 10.5
2009-03-30 07:04:05 51°16.049 2°54.354 12.4 9.4 6 10.5
2009-03-30 07:04:11 51°16.065 2°54.356 12.4 9.2 6 10.5
2009-03-30 07:04:16 51°16.077 2°54.358 12.5 8.9 6 10.5
2009-03-30 07:04:21 51°16.089 2°54.36 12.4 8.4 5 10.6
2009-03-30 07:04:26 51°16.099 2°54.361 12.2 7.9 4 10.7
2009-03-30 07:04:31 51°16.11 2°54.362 11.3 7.3 2 10.6
2009-03-30 07:04:36 51°16.119 2°54.361 9.6 6.8 357 10.7
2009-03-30 07:04:41 51°16.128 2°54.359 5.1 6.5 353 10.6
2009-03-30 07:04:46 51°16.136 2°54.356 0.8 6.1 348 10.7
2009-03-30 07:04:51 51°16.143 2°54.353 356.9 5.6 344 10.7
2009-03-30 07:04:56 51°16.15 2°54.349 353.5 5.3 341 10.7
2009-03-30 07:05:01 51°16.157 2°54.345 350.6 5.1 337 10.7
2009-03-30 07:05:06 51°16.163 2°54.34 348.3 4.9 336 10.7
2009-03-30 07:05:11 51°16.168 2°54.335 346.3 4.7 333 10.7
2009-03-30 07:05:16 51°16.174 2°54.33 344.5 4.5 330 10.7
2009-03-30 07:05:21 51°16.179 2°54.325 342.9 4.3 329 10.7
2009-03-30 07:05:26 51°16.184 2°54.32 342.1 4.2 327 10.7
2009-03-30 07:05:31 51°16.189 2°54.315 341.9 4.1 328 10.6
2009-03-30 07:05:36 51°16.193 2°54.311 341.9 3.9 325 10.7
2009-03-30 07:05:41 51°16.197 2°54.306 341.9 3.8 327 10.7
2009-03-30 07:05:46 51°16.201 2°54.301 341.7 3.7 323 10.6
2009-03-30 07:05:51 51°16.205 2°54.297 341.2 3.5 323 10.6
2009-03-30 07:05:56 51°16.209 2°54.292 340.9 3.4 323 10.7
2009-03-30 07:06:01 51°16.213 2°54.288 340.5 3.3 323 10.7
2009-03-30 07:06:06 51°16.216 2°54.283 339.8 3.2 320 10.7
2009-03-30 07:06:11 51°16.219 2°54.279 339.5 3.1 321 10.7
2009-03-30 07:06:16 51°16.222 2°54.274 339.3 3 319 10.6
2009-03-30 07:06:21 51°16.225 2°54.27 339 2.9 318 10.7
2009-03-30 07:06:26 51°16.228 2°54.266 338.9 2.9 318 10.6
2009-03-30 07:06:31 51°16.231 2°54.261 338.6 2.7 317 10.7
2009-03-30 07:06:36 51°16.233 2°54.258 338 2.5 313 10.7
2009-03-30 07:06:41 51°16.236 2°54.254 336.9 2.5 311 10.7
2009-03-30 07:06:46 51°16.238 2°54.25 335 2.3 309 10.7
2009-03-30 07:06:51 51°16.24 2°54.246 333.2 2.2 308 10.7
2009-03-30 07:06:56 51°16.241 2°54.242 330.9 2.2 304 10.7
2009-03-30 07:07:01 51°16.243 2°54.238 328.6 2.1 306 10.7
2009-03-30 07:07:06 51°16.244 2°54.234 326.1 1.9 299 10.7
2009-03-30 07:07:11 51°16.245 2°54.23 325.2 1.9 298 10.6
2009-03-30 07:07:16 51°16.247 2°54.227 324.5 1.8 296 10.6
2009-03-30 07:07:21 51°16.248 2°54.223 323.4 1.9 297 10.7
2009-03-30 07:07:26 51°16.249 2°54.219 322 1.9 293 10.7
2009-03-30 07:07:31 51°16.25 2°54.216 321.2 1.9 296 10.7
2009-03-30 07:07:36 51°16.251 2°54.212 320.2 1.8 292 10.6
2009-03-30 07:07:40 51°16.252 2°54.209 318.7 1.7 297 10.6
2009-03-30 07:07:45 51°16.253 2°54.205 317.3 1.8 290 10.6
2009-03-30 07:07:51 51°16.254 2°54.201 316.1 1.8 290 10.6
2009-03-30 07:07:56 51°16.255 2°54.198 315.4 1.7 292 10.6
2009-03-30 07:08:00 51°16.255 2°54.195 314.1 1.8 290 10.6
2009-03-30 07:08:05 51°16.256 2°54.191 313.1 1.7 289 10.7
2009-03-30 07:08:11 51°16.257 2°54.186 312.2 1.7 288 10.6
2009-03-30 07:08:16 51°16.258 2°54.183 311.5 1.6 285 10.6
2009-03-30 07:08:20 51°16.258 2°54.18 310.7 1.6 288 10.6
2009-03-30 07:08:25 51°16.259 2°54.177 309.7 1.6 287 10.6
2009-03-30 07:08:31 51°16.26 2°54.173 308.4 1.6 284 10.6
2009-03-30 07:08:36 51°16.26 2°54.169 307.5 1.6 284 10.6
2009-03-30 07:08:40 51°16.261 2°54.167 307.1 1.6 286 10.6
2009-03-30 07:08:45 51°16.261 2°54.163 306.3 1.6 283 10.6
2009-03-30 07:08:51 51°16.262 2°54.159 305.2 1.5 283 10.6
2009-03-30 07:08:55 51°16.262 2°54.156 304.9 1.5 286 10.6
2009-03-30 07:09:01 51°16.263 2°54.152 304 1.5 280 10.7
2009-03-30 07:09:05 51°16.263 2°54.15 303.2 1.5 283 10.6
2009-03-30 07:09:11 51°16.263 2°54.146 302.9 1.5 281 10.7
2009-03-30 07:09:16 51°16.264 2°54.142 302.3 1.5 283 10.6
2009-03-30 07:09:20 51°16.264 2°54.14 301.6 1.5 282 10.6
2009-03-30 07:09:26 51°16.265 2°54.136 301.3 1.5 284 10.6
2009-03-30 07:09:31 51°16.265 2°54.133 300.7 1.5 277 10.6
2009-03-30 07:09:36 51°16.266 2°54.13 300.3 1.4 283 10.6
2009-03-30 07:09:41 51°16.266 2°54.127 300 1.5 279 10.6
2009-03-30 07:09:46 51°16.266 2°54.124 299.3 1.4 282 10.6
2009-03-30 07:09:51 51°16.267 2°54.121 298.9 1.4 280 10.6
2009-03-30 07:09:56 51°16.267 2°54.117 298.4 1.4 281 10.6
2009-03-30 07:10:01 51°16.267 2°54.114 297.8 1.4 277 10.6
2009-03-30 07:10:05 51°16.268 2°54.112 297.3 1.4 287 10.6
2009-03-30 07:10:11 51°16.268 2°54.108 297.2 1.4 275 10.6
2009-03-30 07:10:16 51°16.268 2°54.105 296.7 1.3 282 10.6
2009-03-30 07:10:21 51°16.269 2°54.102 296.5 1.4 278 10.6
2009-03-30 07:10:25 51°16.269 2°54.1 296.2 1.3 280 10.6
2009-03-30 07:10:31 51°16.269 2°54.096 295.5 1.4 276 10.6
2009-03-30 07:10:36 51°16.27 2°54.094 295.4 1.3 287 10.7
2009-03-30 07:10:41 51°16.27 2°54.091 295.2 1.4 275 10.6
2009-03-30 07:10:45 51°16.27 2°54.089 294.8 1.3 277 10.7
2009-03-30 07:10:51 51°16.271 2°54.085 294.9 1.3 283 10.7
2009-03-30 07:10:56 51°16.271 2°54.082 294.9 1.3 275 10.7
2009-03-30 07:11:01 51°16.271 2°54.08 294.5 1.2 281 10.6
2009-03-30 07:11:05 51°16.271 2°54.078 294.9 1.2 280 10.6
2009-03-30 07:11:11 51°16.271 2°54.074 294.5 1.2 277 10.6
2009-03-30 07:11:16 51°16.272 2°54.072 294.3 1.2 283 10.6
2009-03-30 07:11:21 51°16.272 2°54.069 294.2 1.2 274 10.6
2009-03-30 07:11:25 51°16.272 2°54.067 294.1 1.2 281 10.6
2009-03-30 07:11:31 51°16.272 2°54.063 293.8 1.2 272 10.6
2009-03-30 07:11:36 51°16.273 2°54.061 293.8 1.2 284 10.6
2009-03-30 07:11:41 51°16.273 2°54.058 293.3 1.3 271 10.6
2009-03-30 07:11:45 51°16.273 2°54.056 293.3 1.2 287 10.6
2009-03-30 07:11:50 51°16.273 2°54.053 293.2 1.3 269 10.6
2009-03-30 07:11:55 51°16.274 2°54.051 293.1 1.2 282 10.6
2009-03-30 07:12:00 51°16.274 2°54.048 293.2 1.1 275 10.6
2009-03-30 07:12:05 51°16.274 2°54.046 292.6 1.1 287 10.6
2009-03-30 07:12:09 51°16.274 2°54.044 292.6 1.2 276 10.6
2009-03-30 07:12:16 51°16.275 2°54.04 292.6 1.1 280 10.7
2009-03-30 07:12:21 51°16.275 2°54.038 292.8 1.2 283 10.6
2009-03-30 07:12:25 51°16.275 2°54.036 292.7 1.3 276 10.7
2009-03-30 07:12:30 51°16.275 2°54.033 292.9 1.3 282 10.6
2009-03-30 07:12:36 51°16.276 2°54.029 292.6 1.4 280 10.7
2009-03-30 07:12:41 51°16.276 2°54.026 292.4 1.6 287 10.7
2009-03-30 07:12:45 51°16.277 2°54.023 292.4 1.9 280 10.6
2009-03-30 07:12:50 51°16.278 2°54.018 293 2.2 288 10.6
2009-03-30 07:12:56 51°16.278 2°54.012 293.8 2.6 282 10.7
2009-03-30 07:13:01 51°16.28 2°54.006 294.8 2.9 287 10.6
2009-03-30 07:13:05 51°16.281 2°54 295.9 3.4 287 10.6
2009-03-30 07:13:10 51°16.282 2°53.992 296 4.1 287 10.6
2009-03-30 07:13:16 51°16.285 2°53.981 296.3 4.7 289 10.6
2009-03-30 07:13:21 51°16.287 2°53.97 296.3 5.3 289 10.6
2009-03-30 07:13:25 51°16.289 2°53.961 296.3 5.6 290 10.6
2009-03-30 07:13:30 51°16.292 2°53.948 296.2 6.3 289 10.7
2009-03-30 07:13:36 51°16.296 2°53.931 296.5 6.9 290 10.7
2009-03-30 07:13:41 51°16.3 2°53.916 297.2 7.3 291 10.6
2009-03-30 07:13:45 51°16.303 2°53.904 297.7 7.7 292 10.6
2009-03-30 07:13:50 51°16.307 2°53.887 298.1 8.1 293 10.6
2009-03-30 07:13:54 51°16.311 2°53.873 298.4 8.6 293 10.6
2009-03-30 07:14:01 51°16.318 2°53.849 300.9 8.9 297 10.7
2009-03-30 07:14:05 51°16.323 2°53.834 302.7 9.2 297 10.7
2009-03-30 07:14:10 51°16.329 2°53.816 304.2 9.5 300 10.8
2009-03-30 07:14:14 51°16.335 2°53.801 305.7 9.7 300 10.7
2009-03-30 07:14:20 51°16.344 2°53.779 308.6 9.9 305 10.7
2009-03-30 07:14:25 51°16.352 2°53.76 311.3 10.2 305 10.8
2009-03-30 07:14:30 51°16.36 2°53.741 313.1 10.4 308 10.7
2009-03-30 07:14:36 51°16.371 2°53.72 315 10.5 308 10.7
2009-03-30 07:14:41 51°16.381 2°53.702 316.2 10.7 310 10.7
2009-03-30 07:14:45 51°16.389 2°53.687 317.7 10.8 311 10.8
2009-03-30 07:14:50 51°16.399 2°53.669 319 10.9 313 10.8
2009-03-30 07:14:56 51°16.412 2°53.648 320.3 11 314 10.7
2009-03-30 07:15:01 51°16.422 2°53.63 321 11.1 314 10.8
2009-03-30 07:15:05 51°16.431 2°53.616 321.6 11.3 315 10.8
2009-03-30 07:15:10 51°16.443 2°53.599 322.3 11.4 316 10.8
2009-03-30 07:15:16 51°16.457 2°53.577 323.1 11.7 317 10.8
2009-03-30 07:15:21 51°16.469 2°53.559 323.4 11.8 316 10.8
2009-03-30 07:15:25 51°16.478 2°53.545 323.7 12 317 10.8
2009-03-30 07:15:30 51°16.49 2°53.526 323.7 12.1 317 10.8
2009-03-30 07:15:36 51°16.505 2°53.505 323.5 12.1 317 10.8
2009-03-30 07:15:41 51°16.517 2°53.486 323.3 12.3 316 10.8
2009-03-30 07:15:45 51°16.527 2°53.471 323.1 12.3 316 10.8
2009-03-30 07:15:50 51°16.539 2°53.451 322.3 12.3 315 10.8
2009-03-30 07:15:56 51°16.554 2°53.429 321.6 12.4 316 10.8
2009-03-30 07:16:01 51°16.566 2°53.409 321.5 12.3 315 10.8
2009-03-30 07:16:05 51°16.576 2°53.394 321.9 12.3 316 10.7
2009-03-30 07:16:10 51°16.588 2°53.375 322.3 12.4 316 10.7
2009-03-30 07:16:14 51°16.598 2°53.36 322.3 12.5 317 10.8
2009-03-30 07:16:21 51°16.616 2°53.333 322.5 12.4 316 10.7
2009-03-30 07:16:25 51°16.626 2°53.318 322.3 12.5 316 10.6
2009-03-30 07:16:30 51°16.638 2°53.298 322 12.5 316 10.6
2009-03-30 07:16:34 51°16.648 2°53.283 321.8 12.4 316 10.5
2009-03-30 07:16:40 51°16.663 2°53.26 321.6 12.4 316 10.4
2009-03-30 07:16:45 51°16.675 2°53.241 321.5 12.5 316 10.5
2009-03-30 07:16:50 51°16.688 2°53.222 321.3 12.5 316 10.6
2009-03-30 07:16:56 51°16.702 2°53.199 321.2 12.4 316 10.5
2009-03-30 07:17:01 51°16.715 2°53.179 321.3 12.4 316 10.4
2009-03-30 07:17:05 51°16.725 2°53.164 321.3 12.4 316 10.3
2009-03-30 07:17:10 51°16.737 2°53.144 320.8 12.5 315 10.4
2009-03-30 07:17:16 51°16.751 2°53.121 320.5 12.4 315 10.2
2009-03-30 07:17:21 51°16.763 2°53.101 319.7 12.4 313 10.1
2009-03-30 07:17:25 51°16.773 2°53.086 319.2 12.4 314 10
2009-03-30 07:17:30 51°16.785 2°53.066 318.8 12.4 313 9.8
2009-03-30 07:17:36 51°16.799 2°53.042 318 12.3 314 9.5
2009-03-30 07:17:41 51°16.81 2°53.022 318.5 12.3 314 9
2009-03-30 07:17:45 51°16.82 2°53.007 319.1 12.3 315 8.7
2009-03-30 07:17:50 51°16.832 2°52.987 319.6 12.2 315 8.2
2009-03-30 07:17:56 51°16.846 2°52.965 320.1 12.1 315 8
2009-03-30 07:18:01 51°16.858 2°52.946 320.4 12 315 7.8
2009-03-30 07:18:05 51°16.868 2°52.931 320.9 12 316 7.8
2009-03-30 07:18:10 51°16.88 2°52.912 320.9 12.1 314 7.9
2009-03-30 07:18:14 51°16.889 2°52.897 320.1 12.2 315 8.1
2009-03-30 07:18:21 51°16.905 2°52.87 319.4 12.1 314 8
2009-03-30 07:18:25 51°16.915 2°52.854 318.8 12.2 314 8.2
2009-03-30 07:18:30 51°16.926 2°52.835 318.6 12.3 313 8.3
2009-03-30 07:18:34 51°16.936 2°52.819 318.3 12.3 313 8.4
2009-03-30 07:18:40 51°16.95 2°52.795 318.1 12.3 313 8.5
2009-03-30 07:18:45 51°16.961 2°52.775 318 12.3 314 8.5
2009-03-30 07:18:50 51°16.973 2°52.755 318 12.3 313 8.7
2009-03-30 07:18:54 51°16.982 2°52.739 318 12.4 313 8.8
2009-03-30 07:19:00 51°16.996 2°52.716 317.9 12.4 314 9
2009-03-30 07:19:05 51°17.008 2°52.696 318.1 12.4 314 9
2009-03-30 07:19:10 51°17.02 2°52.676 318.3 12.4 314 9.1
2009-03-30 07:19:16 51°17.034 2°52.652 318.6 12.4 314 9.1
2009-03-30 07:19:21 51°17.046 2°52.632 318.6 12.4 314 9
2009-03-30 07:19:25 51°17.056 2°52.616 318.1 12.3 314 8.7
2009-03-30 07:19:30 51°17.068 2°52.597 318.9 12.3 316 8.7
2009-03-30 07:19:36 51°17.082 2°52.574 320.1 12.2 315 8.6
2009-03-30 07:19:41 51°17.095 2°52.556 320.5 12.3 317 8.7
2009-03-30 07:19:45 51°17.105 2°52.541 321.3 12.2 317 8.6
2009-03-30 07:19:50 51°17.117 2°52.523 321.8 12.2 318 8.9
2009-03-30 07:19:56 51°17.133 2°52.501 322.5 12.2 318 8.8
2009-03-30 07:20:01 51°17.145 2°52.484 323.1 12.3 319 9
2009-03-30 07:20:05 51°17.155 2°52.469 323.4 12.3 319 9.1
2009-03-30 07:20:10 51°17.169 2°52.452 324.2 12.2 320 9
2009-03-30 07:20:16 51°17.184 2°52.431 324.4 12.1 320 9.1
2009-03-30 07:20:21 51°17.197 2°52.413 324.5 12.2 320 9.1
2009-03-30 07:20:25 51°17.208 2°52.4 325 12.3 321 9.1
2009-03-30 07:20:30 51°17.221 2°52.382 325.5 12.3 322 9.1
2009-03-30 07:20:34 51°17.232 2°52.369 326.4 12.4 321 9.2
2009-03-30 07:20:41 51°17.25 2°52.345 326.7 12.3 322 9.3
2009-03-30 07:20:45 51°17.261 2°52.332 326.7 12.4 322 9.4
2009-03-30 07:20:50 51°17.275 2°52.315 326.8 12.4 322 9.5
2009-03-30 07:20:54 51°17.285 2°52.302 326.7 12.4 322 9.4
2009-03-30 07:21:01 51°17.304 2°52.278 326.7 12.3 323 9.5
2009-03-30 07:21:05 51°17.315 2°52.265 327 12.4 322 9.5